Regional Weather Roundup
Issued by NWS Glasgow, MT

Home | Current Version | Previous Version | Text Only | Print | Product List | Glossary On
Versions: 1 2 3 4 5 6 7 8 9 10 11 12 13 14 15 16 17 18 19 20 21 22 23 24 25 26 27 28 29 30 31 32 33 34 35 36 37 38 39 40 41 42 43 44 45 46 47 48 49 50
897
ASUS45 KGGW 041415
RWRGGW
HOURLY REGIONAL WEATHER ROUNDUP FOR NORTHEAST MONTANA
NATIONAL WEATHER SERVICE GLASGOW MONTANA
800 AM MDT WED MAY 04 2016

NOTE: "FAIR" INDICATES FEW OR NO CLOUDS BELOW 12,000 FEET WITH NO
SIGNIFICANT WEATHER AND/OR OBSTRUCTIONS TO VISISBILITY.

NORTHEAST MONTANA


CITY           SKY/WX    TMP DP  RH WIND       PRES   REMARKS
GLASGOW        SUNNY     58  41  53 SE12      30.02R
PLENTYWOOD       N/A     58  39  49 SE3         N/A
WOLF POINT     SUNNY     57  44  62 E5        30.04F
JORDAN           N/A     53  46  77 CALM      30.03S
WINNETT          N/A     61  40  45 SE1         N/A
SIDNEY         SUNNY     57  43  58 S9        30.07F
GLENDIVE       SUNNY     57  43  58 S6        30.11S
MALTA            N/A     55  45  68 NE3         N/A
SCOBEY           N/A     56  36  47 CALM      30.02S
OPHEIM           N/A     61  37  41 CALM      29.81R

FORT PECK REPORTS


CITY           SKY/WX    TMP DP  RH WIND       PRES   REMARKS
FORT PECK        N/A     59  45  59 SE6         N/A
THE PINES        N/A     60  41  49 S3          N/A

SOUTHEAST MONTANA


CITY           SKY/WX    TMP DP  RH WIND       PRES   REMARKS
BILLINGS       SUNNY     53  39  59 SW10      30.09R
MILES CITY     SUNNY     56  41  57 SE9       30.07S
BAKER          SUNNY     61  42  49 E6        30.12S
LIVINGSTON     SUNNY     49  33  54 N7        30.13S

CENTRAL MONTANA


CITY           SKY/WX    TMP DP  RH WIND       PRES   REMARKS
HAVRE          SUNNY     52  46  80 CALM      29.99S
LEWISTOWN      SUNNY     57  39  51 MISG      30.06R
GREAT FALLS    SUNNY     60  37  42 S12       30.01S
CUT BANK       SUNNY     53  38  56 W5        30.00S
HELENA         SUNNY     51  36  56 N3        30.10R
BUTTE          SUNNY     41  30  65 CALM      30.17S
BOZEMAN        SUNNY     49  38  65 SE3       30.14R

WESTERN MONTANA


CITY           SKY/WX    TMP DP  RH WIND       PRES   REMARKS
MISSOULA       PTSUNNY   49  40  71 SW3       30.09S
KALISPELL      NOT AVBL

NORTH DAKOTA


CITY           SKY/WX    TMP DP  RH WIND       PRES   REMARKS
WILLISTON      SUNNY     59  41  51 S6        30.06F
DICKINSON      SUNNY     61  39  44 S7        30.09S
MINOT          MOSUNNY   55  34  45 SE6       30.07S
BISMARCK       SUNNY     48  36  63 E3        30.13S

SOUTHERN SASKATCHEWAN


CITY           SKY/WX    TMP DP  RH WIND       PRES   REMARKS
REGINA         MOSUNNY   57  39  51 SE8       29.99R
MOOSE JAW      MOSUNNY   70  43  37 SW12G17   29.96F
ESTEVAN        MOSUNNY   61  41  48 SW9       30.03F
SWIFT CURRENT  SUNNY     66  39  37 SW18      29.94S





USA.gov is the U.S. government's official web portal to all federal, state and local government web resources and services.